| time (UTC) | temp F | wind direction | speed MPH | gust MPH | rain 1hr in | rain 24hr in | rain mn in | humidity % | barometer mb |
| 20260509210106 | 65 | 332 | 9.0 | 18.0 | 0.00 | 0.55 | 0.44 | 58 | 1004.8 |
| 20260509204601 | 65 | 18 | 7.0 | 15.0 | 0.00 | 0.55 | 0.44 | 58 | 1005.0 |
| 20260509203059 | 64 | 117 | 5.0 | 15.0 | 0.00 | 0.55 | 0.44 | 61 | 1005.0 |
| 20260509201608 | 64 | 324 | 3.0 | 14.0 | 0.00 | 0.55 | 0.44 | 60 | 1005.3 |
| 20260509200107 | 64 | 61 | 4.0 | 16.0 | 0.00 | 0.55 | 0.44 | 63 | 1005.5 |
| 20260509194557 | 64 | 46 | 7.0 | 17.0 | 0.00 | 0.55 | 0.44 | 62 | 1005.5 |
| 20260509193057 | 63 | 335 | 3.0 | 13.0 | 0.00 | 0.55 | 0.44 | 67 | 1005.7 |
| 20260509191557 | 63 | 5 | 4.0 | 17.0 | 0.00 | 0.55 | 0.44 | 70 | 1006.1 |
| 20260509190054 | 62 | 24 | 5.0 | 12.0 | 0.00 | 0.55 | 0.44 | 71 | 1006.0 |
| 20260509184606 | 62 | 355 | 4.0 | 12.0 | 0.00 | 0.58 | 0.44 | 72 | 1006.0 |
| 20260509183059 | 60 | 28 | 4.0 | 13.0 | 0.00 | 0.58 | 0.44 | 74 | 1006.2 |
| 20260509181621 | 60 | 342 | 3.0 | 12.0 | 0.00 | 0.58 | 0.44 | 77 | 1006.3 |
| 20260509180057 | 59 | 344 | 3.0 | 11.0 | 0.00 | 0.58 | 0.44 | 79 | 1006.5 |
| 20260509174558 | 58 | 186 | 3.0 | 11.0 | 0.00 | 0.58 | 0.44 | 82 | 1006.5 |
| 20260509173104 | 57 | 348 | 2.0 | 10.0 | 0.00 | 0.58 | 0.44 | 84 | 1006.6 |
| 20260509171558 | 55 | 346 | 1.0 | 8.0 | 0.00 | 0.58 | 0.44 | 85 | 1006.7 |
| 20260509170058 | 55 | 360 | 2.0 | 6.0 | 0.00 | 0.58 | 0.44 | 86 | 1006.8 |
| 20260509164555 | 55 | 34 | 2.0 | 7.0 | 0.00 | 0.58 | 0.44 | 86 | 1006.7 |
| 20260509163055 | 54 | 360 | 2.0 | 8.0 | 0.00 | 0.58 | 0.44 | 87 | 1006.8 |
| 20260509161600 | 54 | 19 | 2.0 | 6.0 | 0.00 | 0.58 | 0.44 | 87 | 1006.8 |
| 20260509160059 | 53 | 346 | 3.0 | 9.0 | 0.00 | 0.58 | 0.44 | 89 | 1006.4 |
| 20260509154556 | 53 | 344 | 3.0 | 9.0 | 0.00 | 0.58 | 0.44 | 89 | 1006.3 |
| 20260509153057 | 52 | 360 | 2.0 | 8.0 | 0.00 | 0.58 | 0.44 | 89 | 1006.4 |
| 20260509151603 | 52 | 9 | 2.0 | 8.0 | 0.00 | 0.58 | 0.44 | 90 | 1006.3 |
| 20260509150058 | 52 | 15 | 2.0 | 8.0 | 0.00 | 0.58 | 0.44 | 90 | 1006.3 |
| 20260509144610 | 52 | 342 | 2.0 | 11.0 | 0.00 | 0.58 | 0.44 | 90 | 1006.2 |
| 20260509143122 | 51 | 12 | 4.0 | 10.0 | 0.00 | 0.58 | 0.44 | 90 | 1006.3 |
| 20260509141557 | 51 | 5 | 3.0 | 10.0 | 0.00 | 0.58 | 0.44 | 90 | 1006.4 |
| 20260509140106 | 51 | 355 | 2.0 | 8.0 | 0.00 | 0.58 | 0.44 | 91 | 1006.3 |
| 20260509134611 | 51 | 5 | 2.0 | 8.0 | 0.00 | 0.60 | 0.44 | 91 | 1006.4 |
| 20260509133057 | 50 | 23 | 4.0 | 9.0 | 0.00 | 0.60 | 0.44 | 91 | 1006.6 |
| 20260509131558 | 50 | 309 | 3.0 | 6.0 | 0.00 | 0.60 | 0.44 | 91 | 1006.7 |
| 20260509130101 | 50 | 9 | 2.0 | 9.0 | 0.01 | 0.60 | 0.44 | 91 | 1006.6 |
| 20260509124557 | 49 | 31 | 2.0 | 5.0 | 0.01 | 0.60 | 0.44 | 91 | 1006.6 |
| 20260509123130 | 49 | 336 | 1.0 | 6.0 | 0.01 | 0.60 | 0.44 | 91 | 1006.9 |
| 20260509121612 | 49 | 11 | 1.0 | 7.0 | 0.02 | 0.60 | 0.44 | 91 | 1006.9 |
| 20260509120113 | 48 | 0 | 2.0 | 5.0 | 0.01 | 0.58 | 0.43 | 91 | 1007.0 |
| 20260509114601 | 48 | 11 | 0.0 | 3.0 | 0.01 | 0.60 | 0.43 | 91 | 1006.9 |
| 20260509113106 | 48 | 0 | 0.0 | 2.0 | 0.02 | 0.60 | 0.43 | 91 | 1006.8 |
| 20260509111607 | 48 | 360 | 0.0 | 4.0 | 0.02 | 0.58 | 0.42 | 91 | 1006.9 |
| 20260509110100 | 48 | 0 | 0.0 | 2.0 | 0.06 | 0.58 | 0.42 | 90 | 1006.8 |
| 20260509104558 | 48 | 0 | 1.0 | 3.0 | 0.10 | 0.58 | 0.42 | 91 | 1006.6 |
| 20260509103106 | 48 | 0 | 0.0 | 2.0 | 0.14 | 0.58 | 0.41 | 91 | 1006.7 |
| 20260509101624 | 47 | 10 | 1.0 | 3.0 | 0.15 | 0.57 | 0.40 | 90 | 1006.9 |
| 20260509100059 | 47 | 31 | 0.0 | 2.0 | 0.13 | 0.52 | 0.36 | 90 | 1006.9 |
| 20260509094603 | 47 | 341 | 1.0 | 4.0 | 0.12 | 0.49 | 0.32 | 90 | 1007.1 |
| 20260509093108 | 47 | 12 | 1.0 | 3.0 | 0.11 | 0.44 | 0.27 | 90 | 1007.3 |
| 20260509091605 | 47 | 5 | 1.0 | 4.0 | 0.11 | 0.42 | 0.25 | 90 | 1007.3 |
| 20260509084610 | 47 | 0 | 0.0 | 2.0 | 0.13 | 0.38 | 0.20 | 90 | 1007.6 |
| 20260509083058 | 47 | 0 | 0.0 | 3.0 | 0.11 | 0.34 | 0.16 | 90 | 1007.8 |
| 20260509081610 | 47 | 9 | 1.0 | 3.0 | 0.09 | 0.31 | 0.13 | 90 | 1007.7 |
| 20260509074600 | 47 | 0 | 0.0 | 2.0 | 0.03 | 0.25 | 0.07 | 89 | 1007.6 |
| 20260509073107 | 47 | 26 | 1.0 | 3.0 | 0.01 | 0.23 | 0.05 | 89 | 1007.7 |
| 20260509071559 | 47 | 0 | 0.0 | 1.0 | 0.00 | 0.22 | 0.04 | 89 | 1007.6 |
| 20260509070101 | 47 | 0 | 0.0 | 3.0 | 0.00 | 0.22 | 0.04 | 89 | 1007.5 |
| 20260509064620 | 47 | 0 | 0.0 | 2.0 | 0.00 | 0.22 | 0.04 | 89 | 1007.6 |
| 20260509063103 | 47 | 27 | 1.0 | 3.0 | 0.00 | 0.22 | 0.04 | 89 | 1007.8 |
| 20260509061606 | 47 | 11 | 0.0 | 2.0 | 0.00 | 0.22 | 0.04 | 89 | 1008.1 |
| 20260509060101 | 48 | 11 | 0.0 | 3.0 | 0.00 | 0.22 | 0.04 | 89 | 1008.3 |
| 20260509054603 | 48 | 13 | 0.0 | 3.0 | 0.01 | 0.22 | 0.04 | 89 | 1008.6 |
| 20260509053111 | 48 | 15 | 1.0 | 3.0 | 0.02 | 0.22 | 0.04 | 88 | 1008.9 |
| 20260509051609 | 48 | 19 | 1.0 | 3.0 | 0.03 | 0.22 | 0.04 | 88 | 1008.8 |
| 20260509050100 | 48 | 19 | 0.0 | 2.0 | 0.04 | 0.22 | 0.04 | 88 | 1008.9 |
| 20260509044559 | 48 | 0 | 0.0 | 2.0 | 0.04 | 0.21 | 0.03 | 88 | 1009.1 |
| 20260509043100 | 48 | 19 | 1.0 | 3.0 | 0.04 | 0.20 | 0.02 | 88 | 1009.5 |
| 20260509041619 | 48 | 19 | 1.0 | 3.0 | 0.04 | 0.19 | 0.01 | 88 | 1009.8 |
| 20260509040056 | 48 | 0 | 0.0 | 3.0 | 0.04 | 0.18 | 0.00 | 88 | 1009.9 |
| 20260509034556 | 48 | 5 | 0.0 | 3.0 | 0.04 | 0.17 | 0.17 | 87 | 1009.9 |
| 20260509033056 | 48 | 5 | 0.0 | 3.0 | 0.04 | 0.16 | 0.16 | 87 | 1010.1 |
| 20260509031556 | 48 | 5 | 1.0 | 3.0 | 0.04 | 0.15 | 0.15 | 87 | 1010.1 |
| 20260509030059 | 48 | 15 | 0.0 | 2.0 | 0.04 | 0.14 | 0.14 | 87 | 1010.1 |
| 20260509024600 | 48 | 5 | 1.0 | 2.0 | 0.04 | 0.13 | 0.13 | 86 | 1010.4 |
| 20260509023111 | 48 | 11 | 0.0 | 2.0 | 0.03 | 0.12 | 0.12 | 86 | 1010.6 |
| 20260509021601 | 49 | 11 | 0.0 | 1.0 | 0.02 | 0.11 | 0.11 | 86 | 1010.7 |
| 20260509020101 | 49 | 0 | 0.0 | 1.0 | 0.02 | 0.10 | 0.10 | 86 | 1010.4 |
| 20260509014557 | 49 | 0 | 0.0 | 3.0 | 0.01 | 0.09 | 0.09 | 86 | 1010.1 |
| 20260509013102 | 49 | 5 | 0.0 | 2.0 | 0.01 | 0.09 | 0.09 | 85 | 1009.8 |
| 20260509011601 | 49 | 5 | 0.0 | 2.0 | 0.01 | 0.09 | 0.09 | 85 | 1009.5 |
| 20260509010056 | 49 | 0 | 0.0 | 1.0 | 0.00 | 0.08 | 0.08 | 84 | 1009.6 |
| 20260509004558 | 49 | 0 | 1.0 | 3.0 | 0.00 | 0.08 | 0.08 | 84 | 1009.3 |
| 20260509003057 | 49 | 5 | 0.0 | 2.0 | 0.00 | 0.08 | 0.08 | 84 | 1009.2 |
| 20260509001558 | 50 | 0 | 0.0 | 0.0 | 0.00 | 0.08 | 0.08 | 83 | 1009.3 |
| 20260509000111 | 50 | 0 | 0.0 | 0.0 | 0.00 | 0.08 | 0.08 | 83 | 1009.3 |
| 20260508234557 | 50 | 0 | 0.0 | 0.0 | 0.00 | 0.08 | 0.08 | 83 | 1009.0 |
| 20260508233117 | 50 | 0 | 0.0 | 1.0 | 0.01 | 0.08 | 0.08 | 82 | 1008.9 |
| 20260508231559 | 50 | 0 | 0.0 | 1.0 | 0.01 | 0.08 | 0.08 | 81 | 1008.8 |
| 20260508230105 | 51 | 0 | 0.0 | 1.0 | 0.01 | 0.08 | 0.08 | 80 | 1009.2 |
| 20260508224559 | 51 | 0 | 0.0 | 4.0 | 0.01 | 0.08 | 0.08 | 78 | 1009.5 |
| 20260508223055 | 51 | 0 | 0.0 | 3.0 | 0.00 | 0.07 | 0.07 | 77 | 1009.3 |
| 20260508221557 | 52 | 0 | 0.0 | 8.0 | 0.00 | 0.07 | 0.07 | 74 | 1009.3 |
| 20260508220056 | 52 | 360 | 2.0 | 9.0 | 0.00 | 0.07 | 0.07 | 73 | 1009.3 |
| 20260508214556 | 53 | 360 | 1.0 | 6.0 | 0.00 | 0.07 | 0.07 | 71 | 1009.4 |
| 20260508213057 | 54 | 331 | 3.0 | 8.0 | 0.00 | 0.07 | 0.07 | 68 | 1009.4 |
| 20260508211558 | 54 | 0 | 2.0 | 5.0 | 0.00 | 0.07 | 0.07 | 68 | 1009.5 |